sat.trackr.live / text

‹ back to catalog

2023-072F

NORAD 56748 · 2023-072F

PAYLOAD ACTIVE UNKNOWN

§ Identity

Operator
Country
SKOR
Launch date
2023-05-25
Launch site
NSC
Launch vehicle
Mass (kg)
RCS (m²)

External: N2YO · Heavens-Above · Gunter

§ Orbital elements

Epoch: 2026-09-21T23:05:35.731968Z

Period
93.95 min
Inclination
97.5048°
Eccentricity
0.0006586
Mean motion
15.32719310 rev/d
Perigee alt
463.2 km
Apogee alt
472.2 km
Semi-major
6,845.8 km
B*
1.9018e-4
RAAN
104.2659°
Arg perigee
43.0968°
Mean anomaly
317.0788°
Rev number
18,459

§ Raw data

2023-072F1 56748U 23072F   26264.96221912  .00005931  00000+0  19018-3 0  99952 56748  97.5048 104.2659 0006586  43.0968 317.0788 15.32719310184590

JSON: /api/v1/satellites/56748 · /tle

For live sub-satellite position, see the globe view (requires WebGL).

§ Visibility from observer

Set your observer location to see the next 7 days of passes ≥ 10°. The values pass through the URL so the page stays shareable.

No JS? Fill the form by hand. The geolocation button needs JavaScript.